#timestamp,LO_Frequency,Hit 
1501808415.2,286047003.8,N
1501808435.0,286047006.0,P
1501808435.9,286047006.0,P
1501808455.8,286047000.9,N
1501808475.6,286047000.4,N
1501808495.4,286047001.0,N
1501808515.3,286046999.6,N
1501808535.1,286046997.1,N
1501808536.0,286046997.1,N
1501808555.8,286046997.2,N
1501808575.7,286046997.1,N
1501808595.5,286046997.3,N
1501808615.3,286046998.8,N
1501808635.1,286047002.7,N
1501808655.9,286047001.9,N
1501808675.7,286047002.3,N
1501808695.5,286047001.3,N
1501808715.4,286047000.1,N
1501808735.2,286047000.2,N
1501808755.0,286047002.3,N
1501808755.9,286047002.3,N
1501808775.8,286047000.8,N
1501808795.6,286047000.1,N
1501808815.4,286047000.9,N
1501808835.3,286047000.3,N
1501808855.1,286047000.6,N
1501808856.0,286047000.6,N
1501808875.8,286046999.8,N
1501808895.7,286047000.4,N
1501808915.5,286047001.3,N
1501808935.3,286047002.0,N
1501808955.1,286047000.3,N
1501808975.6,286046998.9,N
1501808995.4,286046998.5,N
1501809015.2,286047000.9,N
1501809035.1,286046997.2,N
1501809036.0,286046997.2,N
1501809055.8,286046998.7,N
1501809075.6,286047000.6,N
1501809095.5,286047002.6,N
1501809115.3,286047001.3,N
1501809135.1,286047004.3,N
1501809155.9,286047003.7,N
1501809175.7,286047005.9,P
1501809195.5,286047001.7,N
1501809215.4,286047002.2,N
1501809235.2,286047001.9,N
1501809255.0,286047002.4,N
1501809255.9,286047002.4,N
1501809275.8,286047000.4,N
1501809295.6,286047004.4,N
1501809315.4,286047003.4,N
1501809335.3,286047005.4,P
1501809355.1,286047002.7,N
1501809375.8,286047002.6,N
1501809395.7,286046998.4,N
1501809415.5,286046998.6,N
1501809435.3,286046999.4,N
1501809455.2,286046999.0,N
1501809475.9,286046996.6,N
1501809495.7,286046994.9,N
1501809515.6,286046995.8,N
1501809535.4,286046995.9,N
1501809555.2,286046995.1,N
1501809575.1,286046996.9,N
1501809576.0,286046996.9,N
1501809595.8,286046997.1,N
1501809615.6,286046995.6,N
1501809635.5,286046997.2,N
1501809655.3,286046997.6,N
1501809675.1,286046995.0,N
1501809695.8,286046995.7,N
1501809715.7,286046995.2,N
1501809735.5,286046996.2,N
1501809755.3,286046995.0,N
1501809775.2,286046996.3,N
1501809795.9,286046995.1,N
1501809815.7,286046999.0,N
1501809835.6,286046999.6,N
1501809855.4,286046996.1,N
1501809875.2,286046997.5,N
1501809895.1,286046996.7,N
1501809896.0,286046996.7,N
1501809915.8,286046993.4,P
1501809935.6,286047001.1,N
1501809955.5,286046998.8,N
1501809975.3,286046996.5,N
1501809995.1,286046997.0,N
1501810015.9,286046996.9,N
1501810035.7,286046999.5,N
1501810055.5,286046997.0,N
1501810075.3,286046996.7,N
1501810095.2,286046995.5,N
1501810115.0,286046995.7,N
1501810115.9,286046995.7,N
1501810135.7,286046996.4,N
1501810155.6,286046990.4,P
1501810175.4,286046996.3,N
1501810195.2,286046995.7,N
1501810215.1,286046995.8,N
1501810216.0,286046995.8,N
1501810235.8,286046996.2,N
1501810255.7,286046993.6,P
1501810275.5,286046998.7,N
1501810295.3,286046997.3,N
1501810315.1,286047000.3,N
1501810335.9,286047002.1,N
1501810355.7,286047002.4,N
1501810375.5,286047002.4,N
1501810395.4,286047003.8,N
1501810415.2,286047005.3,N
1501810435.0,286047005.6,N
1501810435.9,286047005.6,N
1501810455.8,286047003.6,N
1501810475.6,286046999.9,N
1501810495.4,286047001.2,N
1501810515.3,286046999.2,N
1501810535.1,286046997.2,N
1501810536.0,286046997.2,N
1501810555.8,286046997.8,N
1501810575.7,286046997.4,N
1501810595.5,286046999.3,N
1501810615.3,286046999.6,N
1501810635.2,286046997.8,N
1501810655.9,286046996.7,N
1501810675.7,286046997.7,N
1501810695.6,286046994.9,N
1501810715.4,286046997.9,N
1501810735.2,286046998.0,N
1501810755.0,286046999.5,N
1501810755.9,286046999.5,N
1501810775.8,286046997.5,N
1501810795.6,286046995.3,N
1501810815.4,286046995.1,N
1501810835.3,286046998.0,N
1501810855.1,286046995.5,N
1501810875.8,286046995.5,N
1501810895.7,286046999.2,N
1501810915.5,286047000.1,N
1501810935.3,286047002.4,N
1501810955.2,286046999.1,N
1501810975.9,286046997.9,N
1501810995.7,286046999.5,N
1501811015.5,286046999.3,N
1501811035.3,286046999.5,N
1501811055.2,286046998.5,N
1501811075.9,286047000.7,N
1501811095.7,286047000.8,N
1501811115.6,286046998.7,N
1501811135.4,286046998.9,N
1501811155.2,286046998.8,N
1501811175.1,286046998.7,N
1501811176.0,286046998.7,N
1501811195.8,286047002.8,N
1501811215.6,286047005.3,N
1501811235.5,286047005.7,N
1501811255.3,286047007.6,N
1501811275.1,286047004.5,N
1501811295.8,286047004.8,N
1501811315.7,286047005.4,N
1501811335.5,286047005.3,N
1501811355.3,286047005.6,N
1501811375.2,286047005.7,N
1501811395.0,286047003.0,N
1501811395.9,286047003.0,N
1501811415.7,286047007.5,N
1501811435.6,286047007.4,N
1501811455.4,286047006.8,N
1501811475.2,286047006.9,N
1501811495.1,286047009.0,N
1501811496.0,286047009.0,N
1501811515.8,286047008.4,N
1501811535.6,286047008.9,N
1501811555.5,286047009.7,N
1501811575.3,286047010.9,N
1501811595.1,286047011.3,N
1501811615.9,286047009.5,N
1501811635.7,286047009.8,N
1501811655.5,286047013.6,P
1501811675.4,286047006.8,N
1501811695.2,286047006.8,N
1501811715.0,286047006.2,N
1501811715.9,286047006.2,N
1501811735.8,286047008.4,P
1501811755.6,286046999.7,N
1501811775.4,286047002.8,N
1501811795.3,286047000.2,N
1501811815.1,286047002.7,N
1501811816.0,286047002.7,N
1501811835.3,286046999.9,N
1501811855.1,286047001.7,N
1501811875.8,286047000.6,N
1501811895.7,286047000.2,N
1501811915.5,286046999.8,N
1501811935.3,286047000.1,N
1501811955.2,286046998.5,N
1501811975.9,286046999.4,N
1501811995.7,286046999.5,N
